Regional Weather Roundup
Issued by NWS

Home | Current Version | Previous Version | Graphics & Text | Print | Product List | Glossary On
Versions: 1 2 3 4 5 6 7 8 9 10 11 12 13 14 15 16 17 18 19 20 21 22 23 24 25 26 27 28 29 30 31 32 33 34 35 36 37 38 39 40 41 42 43 44 45 46 47 48 49
000
ASUS45 KBOU 241707
RWRCO

WEATHER ROUNDUP FOR COLORADO
NATIONAL WEATHER SERVICE DENVER/BOULDER CO
1000 AM MST WED DEC 24 2014

NOTE: "FAIR" INDICATES FEW OR NO CLOUDS BELOW 12000 FEET WITH NO
SIGNIFICANT WEATHER AND/OR OBSTRUCTIONS TO VISIBILITY.

COZ001>005-013-030-031-241800-
...NORTHWEST COLORADO...

CITY           SKY/WX    TMP DP  RH WIND       PRES   REMARKS
CRAIG          SUNNY     13   9  84 SW5       30.09F WCI   5
HAYDEN         MOSUNNY   12   3  67 SE9       30.08F WCI   0
MEEKER         MOSUNNY   11   5  77 CALM      30.10F
MOUNT WERNER   NOT AVBL
STEAMBOAT SPGS MOSUNNY    8   4  84 CALM      30.10F
WALDEN         MOSUNNY   12   3  67 S7        30.02F WCI   2
$$

COZ006>008-011-241800-
...WEST CENTRAL VALLEYS...

CITY           SKY/WX    TMP DP  RH WIND       PRES   REMARKS
GRAND JUNCTION SUNNY     26  12  55 SE9       30.19F WCI  17
MONTROSE       SUNNY     21   8  57 CALM      30.21F
EAGLE          SUNNY     10   7  85 CALM      30.23F
RIFLE          MOSUNNY   17   8  67 SE3       30.20F
DELTA          SUNNY     24  10  55 E3        30.23F
NUCLA          SUNNY     25   9  50 CALM      30.21S
$$

COZ017>023-064>068-241800-
...SOUTHWEST COLORADO...

CITY           SKY/WX    TMP DP  RH WIND       PRES   REMARKS
DURANGO        SUNNY     21   6  52 E6        30.15S WCI  13
CORTEZ         SUNNY     28  10  46 E5        30.16F WCI  23
PAGOSA SPRINGS SUNNY     19   1  45 CALM      30.13S
TELLURIDE      SUNNY     22   8  54 CALM      30.10F
WOLF CREEK PAS SUNNY     25   5  42 MISG      30.08R
$$

COZ009-010-012-014-032>034-037-058>063-241800-
...CENTRAL COLORADO...

CITY           SKY/WX    TMP DP  RH WIND       PRES   REMARKS
ASPEN          MOSUNNY   16   4  59 N6        30.09F WCI   7
BUENA VISTA    SUNNY     21   2  43 SE8       30.01F WCI  12
COPPER MTN     SUNNY     19  14  79 SW15G22   30.03S WCI   5
BERTHOUD PASS  NOT AVBL
COTTONWOOD PAS SUNNY     30   7  37 W6        29.99S WCI  24
GUNNISON       MOSUNNY   -6 N/A N/A CALM      30.23F
KREMMLING      CLOUDY     5   0  78 CALM      30.16F
LEADVILLE      SUNNY     20   5  52 N3        30.00F
MONARCH PASS   MOSUNNY    9   3  78 MISG      30.12S
SALIDA         SUNNY     31   3  31 NW3       30.09F
SUNLIGHT         N/A    N/A N/A N/A MISG      30.06F
WILKERSON PASS MOSUNNY   23  12  63 N14G26    29.99S WCI  11
$$

COZ069>075-241800-
...SAN LUIS VALLEY/SANGRE DE CRISTO MOUNTAINS...

CITY           SKY/WX    TMP DP  RH WIND       PRES   REMARKS
ALAMOSA        MOSUNNY   20   0  41 CALM      30.12S
LA VETA PASS   SUNNY     10  -2  56 MISG      29.98S
SAGUACHE       MOSUNNY   12   1  62 SE6       30.11S WCI   3
$$

COZ035-036-038>040-241800-
...NORTHERN COLORADO FRONT RANGE...

CITY           SKY/WX    TMP DP  RH WIND       PRES   REMARKS
DENVER INTL AP MOSUNNY   39  13  34 SW8       29.82F
DMNS CITY PARK   N/A     38   8  28 S7        29.83F
AURORA         MOSUNNY   38  10  30 S10       29.83F
FRONT RANGE AP MOSUNNY   39  19  45 S7        29.83F
ERIE MUNI ARPT   N/A     31  14  50 MISG      29.83F
BOULDER MUN AP SUNNY     30  12  47 NE5       29.82F WCI  25
CENTENNIAL     MOSUNNY   34  18  52 S9        29.83F WCI  27
BROOMFIELD     PTSUNNY   36  16  44 SE7       29.83F
FORT COLLINS   SUNNY     27  12  54 CALM      29.85F
LONGMONT       SUNNY     33  13  42 CALM      29.85F
$$

COZ041-046-047-076>085-087-088-241800-
...PIKES PEAK/PALMER DIVIDE AND SOUTHERN FOOTHILLS...

CITY           SKY/WX    TMP DP  RH WIND       PRES   REMARKS
COLO. SPRINGS  MOSUNNY   33  -1  23 SW3       29.90S
A. F. ACADEMY  SUNNY     27   5  38 N2        29.88F
ELLICOTT       NOT AVBL
FALCON         SUNNY     33   1  25 SW3       29.89S
FORT CARSON    SUNNY     29   6  38 W2        29.90R
LIMON          SUNNY     29  12  49 CALM      29.89F
MONUMENT HILL  SUNNY     34  10  37 SW6       29.85F WCI  29
TRINIDAD         N/A    N/A N/A N/A MISG      29.93F
$$

COZ042>045-048>051-090-091-241800-
...NORTHEAST COLORADO...

CITY           SKY/WX    TMP DP  RH WIND       PRES   REMARKS
GREELEY ARPT   SUNNY     25   9  50 W3        29.85F
AKRON          SUNNY     30  13  49 SW9       29.84F WCI  22
BURLINGTON     SUNNY     33  14  45 SW12      29.91F WCI  24
WRAY           SUNNY     29  17  61 SW7       29.90F WCI  22
STERLING       SUNNY     21  14  73 S8        29.87S WCI  12
HOLYOKE        SUNNY     34  19  55 W12       29.86F WCI  25
FORT MORGAN    SUNNY     19  11  72 W10       29.86F WCI   8
$$

COZ086-089-092>099-241800-
...SOUTHEAST COLORADO...

CITY           SKY/WX    TMP DP  RH WIND       PRES   REMARKS
PUEBLO         SUNNY     24  11  57 CALM      29.95S
LA JUNTA       SUNNY     31  12  45 SW8       29.97F WCI  23
LAMAR          SUNNY     33  16  49 W9        29.98F WCI  25
SPRINGFIELD      N/A     32  15  49 W10       29.97F WCI  24
$$



USA.gov is the U.S. government's official web portal to all federal, state and local government web resources and services.